N1442U KCLT-KRDU

Flight info

Callsign N1442U
Flight time 1h 5m
Altitude 7000
Route KNI3 SDZ BUZZY
Aircraft SR22/L-VGD/C

Departure

Time 2026-05-07 01:27
Airport Charlotte Douglas International Airport (KCLT)

Arrival

Time 2026-05-07 02:33
Airport Raleigh-Durham International Airport (KRDU)
Time Latitude Longitude Altitude Speed Heading
2026-05-07 01:07 35.21041 -80.93259 714 ft 0 kts 86°
2026-05-07 01:18 35.21024 -80.93220 712 ft 2 kts 50°
2026-05-07 01:18 35.21069 -80.93224 713 ft 9 kts 346°
2026-05-07 01:18 35.21072 -80.93224 713 ft 0 kts 344°
2026-05-07 01:19 35.21073 -80.93225 713 ft 2 kts 337°
2026-05-07 01:19 35.21103 -80.93281 716 ft 10 kts 299°
2026-05-07 01:19 35.21122 -80.93346 719 ft 8 kts 295°
2026-05-07 01:20 35.21189 -80.93374 721 ft 12 kts 358°
2026-05-07 01:20 35.21268 -80.93378 722 ft 11 kts 352°
2026-05-07 01:20 35.21368 -80.93388 724 ft 17 kts 356°
2026-05-07 01:20 35.21495 -80.93398 727 ft 19 kts 356°
2026-05-07 01:21 35.21621 -80.93408 729 ft 16 kts 356°
2026-05-07 01:21 35.21740 -80.93418 731 ft 17 kts 356°
2026-05-07 01:21 35.21846 -80.93428 731 ft 12 kts 356°
2026-05-07 01:21 35.21875 -80.93430 731 ft 6 kts 357°
2026-05-07 01:22 35.21967 -80.93409 733 ft 16 kts 12°
2026-05-07 01:22 35.22093 -80.93384 733 ft 20 kts 359°
2026-05-07 01:22 35.22228 -80.93394 733 ft 16 kts 357°
2026-05-07 01:22 35.22327 -80.93402 733 ft 11 kts 355°
2026-05-07 01:23 35.22392 -80.93407 734 ft 7 kts 357°
2026-05-07 01:23 35.22445 -80.93411 733 ft 11 kts 353°
2026-05-07 01:23 35.22508 -80.93432 733 ft 0 kts 299°
2026-05-07 01:24 35.22511 -80.93439 733 ft 0 kts 296°
2026-05-07 01:24 35.22517 -80.93459 734 ft 6 kts 285°
2026-05-07 01:25 35.22519 -80.93507 735 ft 4 kts 266°
2026-05-07 01:25 35.22515 -80.93572 735 ft 7 kts 264°
2026-05-07 01:25 35.22481 -80.93613 735 ft 7 kts 180°
2026-05-07 01:25 35.22446 -80.93616 735 ft 0 kts 182°
2026-05-07 01:26 35.22264 -80.93600 735 ft 66 kts 175°
2026-05-07 01:27 35.21666 -80.93546 927 ft 93 kts 178°
2026-05-07 01:27 35.20974 -80.93469 1223 ft 104 kts 177°
2026-05-07 01:27 35.20266 -80.93376 1629 ft 102 kts 179°
2026-05-07 01:27 35.19579 -80.93241 2019 ft 101 kts 176°
2026-05-07 01:28 35.18913 -80.93081 2425 ft 96 kts 175°
2026-05-07 01:28 35.18275 -80.92905 2814 ft 94 kts 176°
2026-05-07 01:28 35.17653 -80.92695 3201 ft 92 kts 174°
2026-05-07 01:28 35.17041 -80.92473 3511 ft 96 kts 176°
2026-05-07 01:29 35.16384 -80.92248 3855 ft 97 kts 174°
2026-05-07 01:29 35.15689 -80.91985 3977 ft 119 kts 174°
2026-05-07 01:29 35.14806 -80.91708 4002 ft 139 kts 174°
2026-05-07 01:29 35.13829 -80.91423 4044 ft 150 kts 175°
2026-05-07 01:30 35.12787 -80.91148 4133 ft 154 kts 175°
2026-05-07 01:30 35.11728 -80.90892 4155 ft 161 kts 176°
2026-05-07 01:30 35.10603 -80.90588 4128 ft 168 kts 173°
2026-05-07 01:30 35.09459 -80.90248 4105 ft 171 kts 174°
2026-05-07 01:31 35.08283 -80.89948 4063 ft 173 kts 176°
2026-05-07 01:31 35.07094 -80.89697 4094 ft 171 kts 178°
2026-05-07 01:31 35.05970 -80.89475 4337 ft 158 kts 179°
2026-05-07 01:31 35.04913 -80.89255 4581 ft 152 kts 175°
2026-05-07 01:32 35.04004 -80.88653 4954 ft 153 kts 142°
2026-05-07 01:32 35.03595 -80.87470 5354 ft 156 kts 100°
2026-05-07 01:32 35.03727 -80.86182 5681 ft 156 kts 81°
2026-05-07 01:32 35.03959 -80.84857 5924 ft 159 kts 81°
2026-05-07 01:33 35.04156 -80.83568 6244 ft 153 kts 83°
2026-05-07 01:33 35.04294 -80.82256 6456 ft 158 kts 90°
2026-05-07 01:33 35.04417 -80.80934 6691 ft 160 kts 86°
2026-05-07 01:33 35.04590 -80.79606 6951 ft 160 kts 82°
2026-05-07 01:34 35.04785 -80.78213 7005 ft 175 kts 83°
2026-05-07 01:34 35.04974 -80.76675 7012 ft 188 kts 83°
2026-05-07 01:34 35.05187 -80.75055 7029 ft 195 kts 83°
2026-05-07 01:34 35.05419 -80.73395 7029 ft 204 kts 82°
2026-05-07 01:35 35.05667 -80.71669 7030 ft 209 kts 81°
2026-05-07 01:35 35.05923 -80.69911 7026 ft 213 kts 81°
2026-05-07 01:35 35.06182 -80.68125 7027 ft 215 kts 82°
2026-05-07 01:35 35.06443 -80.66328 7023 ft 216 kts 82°
2026-05-07 01:36 35.06710 -80.64501 7016 ft 217 kts 82°
2026-05-07 01:36 35.06970 -80.62699 7017 ft 217 kts 82°
2026-05-07 01:36 35.07233 -80.60888 7017 ft 217 kts 82°
2026-05-07 01:36 35.07494 -80.59077 7022 ft 217 kts 82°
2026-05-07 01:37 35.07755 -80.57270 7023 ft 217 kts 82°
2026-05-07 01:37 35.08017 -80.55460 7027 ft 217 kts 82°
2026-05-07 01:37 35.08275 -80.53654 7028 ft 217 kts 82°
2026-05-07 01:37 35.08536 -80.51842 7026 ft 218 kts 82°
2026-05-07 01:38 35.08799 -80.50010 7019 ft 218 kts 82°
2026-05-07 01:38 35.09062 -80.48178 7020 ft 219 kts 81°
2026-05-07 01:38 35.09328 -80.46351 6988 ft 220 kts 82°
2026-05-07 01:38 35.09590 -80.44501 6995 ft 218 kts 82°
2026-05-07 01:39 35.09848 -80.42701 7016 ft 217 kts 82°
2026-05-07 01:39 35.10107 -80.40874 7015 ft 218 kts 82°
2026-05-07 01:39 35.10370 -80.39040 6993 ft 220 kts 82°
2026-05-07 01:39 35.10631 -80.37206 7004 ft 219 kts 82°
2026-05-07 01:40 35.10892 -80.35372 6987 ft 220 kts 82°
2026-05-07 01:40 35.11154 -80.33535 6975 ft 219 kts 83°
2026-05-07 01:40 35.11410 -80.31709 6968 ft 218 kts 83°
2026-05-07 01:40 35.11668 -80.29891 6970 ft 217 kts 83°
2026-05-07 01:41 35.11924 -80.28084 6955 ft 217 kts 83°
2026-05-07 01:41 35.12180 -80.26272 6983 ft 215 kts 83°
2026-05-07 01:41 35.12437 -80.24468 7018 ft 215 kts 83°
2026-05-07 01:41 35.12687 -80.22682 6991 ft 217 kts 83°
2026-05-07 01:42 35.12943 -80.20867 6993 ft 216 kts 83°
2026-05-07 01:42 35.13200 -80.19051 7001 ft 216 kts 83°
2026-05-07 01:42 35.13455 -80.17242 6939 ft 218 kts 83°
2026-05-07 01:42 35.13709 -80.15435 6968 ft 215 kts 83°
2026-05-07 01:43 35.13964 -80.13620 7017 ft 212 kts 83°
2026-05-07 01:43 35.14213 -80.11856 7060 ft 212 kts 83°
2026-05-07 01:43 35.14463 -80.10075 7034 ft 215 kts 83°
2026-05-07 01:43 35.14715 -80.08271 7073 ft 214 kts 83°
2026-05-07 01:44 35.14965 -80.06490 7064 ft 215 kts 83°
2026-05-07 01:44 35.15217 -80.04684 7059 ft 215 kts 84°
2026-05-07 01:44 35.15466 -80.02886 7061 ft 215 kts 83°
2026-05-07 01:44 35.15715 -80.01096 7066 ft 215 kts 83°
2026-05-07 01:45 35.15970 -79.99274 7073 ft 215 kts 83°
2026-05-07 01:45 35.16221 -79.97478 7070 ft 215 kts 83°
2026-05-07 01:45 35.16471 -79.95666 7064 ft 217 kts 83°
2026-05-07 01:45 35.16721 -79.93863 7056 ft 217 kts 83°
2026-05-07 01:46 35.16973 -79.92060 7062 ft 216 kts 83°
2026-05-07 01:46 35.17224 -79.90249 7049 ft 216 kts 83°
2026-05-07 01:46 35.17474 -79.88441 7072 ft 217 kts 83°
2026-05-07 01:46 35.17725 -79.86611 7053 ft 218 kts 82°
2026-05-07 01:47 35.17976 -79.84789 7050 ft 217 kts 82°
2026-05-07 01:47 35.18227 -79.82968 7056 ft 217 kts 83°
2026-05-07 01:47 35.18478 -79.81169 7054 ft 216 kts 83°
2026-05-07 01:47 35.18729 -79.79347 7055 ft 216 kts 83°
2026-05-07 01:48 35.18977 -79.77532 7055 ft 217 kts 83°
2026-05-07 01:48 35.19227 -79.75729 7054 ft 217 kts 83°
2026-05-07 01:48 35.19475 -79.73901 7051 ft 217 kts 83°
2026-05-07 01:48 35.19722 -79.72087 7046 ft 216 kts 82°
2026-05-07 01:49 35.19967 -79.70297 7053 ft 215 kts 82°
2026-05-07 01:49 35.20215 -79.68491 7053 ft 216 kts 82°
2026-05-07 01:49 35.20463 -79.66688 7048 ft 216 kts 83°
2026-05-07 01:49 35.20708 -79.64864 7044 ft 216 kts 82°
2026-05-07 01:50 35.20958 -79.63068 7057 ft 215 kts 82°
2026-05-07 01:50 35.21525 -79.61387 7050 ft 215 kts 62°
2026-05-07 01:50 35.22042 -79.59661 7070 ft 215 kts 75°
2026-05-07 01:50 35.22435 -79.57918 7073 ft 215 kts 76°
2026-05-07 01:51 35.22702 -79.56123 7060 ft 213 kts 95°
2026-05-07 01:51 35.22720 -79.54343 7124 ft 212 kts 81°
2026-05-07 01:51 35.23373 -79.52743 7070 ft 216 kts 49°
2026-05-07 01:51 35.24449 -79.51495 7023 ft 215 kts 34°
2026-05-07 01:52 35.25604 -79.50378 7213 ft 205 kts 37°
2026-05-07 01:52 35.26716 -79.49249 7085 ft 209 kts 23°
2026-05-07 01:52 35.28008 -79.48459 7099 ft 206 kts 18°
2026-05-07 01:52 35.29378 -79.48013 7092 ft 202 kts
2026-05-07 01:53 35.30741 -79.47665 7095 ft 202 kts
2026-05-07 01:53 35.32132 -79.47307 7097 ft 203 kts
2026-05-07 01:53 35.33526 -79.46960 7100 ft 203 kts
2026-05-07 01:53 35.34894 -79.46542 7095 ft 206 kts 13°
2026-05-07 01:54 35.36230 -79.45890 7102 ft 207 kts 15°
2026-05-07 01:54 35.37563 -79.45209 7090 ft 208 kts 16°
2026-05-07 01:54 35.38900 -79.44524 7075 ft 208 kts 16°
2026-05-07 01:54 35.40218 -79.43848 7095 ft 206 kts 16°
2026-05-07 01:55 35.41556 -79.43162 7081 ft 208 kts 16°
2026-05-07 01:55 35.42902 -79.42473 7060 ft 209 kts 16°
2026-05-07 01:55 35.44233 -79.41790 7044 ft 208 kts 16°
2026-05-07 01:55 35.45585 -79.41097 7039 ft 207 kts 16°
2026-05-07 01:56 35.46917 -79.40412 7038 ft 207 kts 16°
2026-05-07 01:56 35.48242 -79.39733 7033 ft 207 kts 15°
2026-05-07 01:56 35.49579 -79.39047 7036 ft 207 kts 15°
2026-05-07 01:56 35.50785 -79.38071 7032 ft 216 kts 43°
2026-05-07 01:57 35.51737 -79.36639 7041 ft 216 kts 49°
2026-05-07 01:57 35.52640 -79.35156 7045 ft 216 kts 50°
2026-05-07 01:57 35.53544 -79.33675 7038 ft 216 kts 50°
2026-05-07 01:57 35.54431 -79.32222 7037 ft 215 kts 50°
2026-05-07 01:58 35.55329 -79.30754 7062 ft 213 kts 50°
2026-05-07 01:58 35.56231 -79.29282 7071 ft 213 kts 50°
2026-05-07 01:58 35.57119 -79.27833 7074 ft 213 kts 50°
2026-05-07 01:58 35.58000 -79.26388 7072 ft 213 kts 50°
2026-05-07 01:59 35.58891 -79.24937 7072 ft 212 kts 50°
2026-05-07 01:59 35.59786 -79.23483 7073 ft 213 kts 50°
2026-05-07 01:59 35.60675 -79.22032 7076 ft 213 kts 51°
2026-05-07 01:59 35.61561 -79.20585 7074 ft 211 kts 50°
2026-05-07 02:00 35.62448 -79.19134 7077 ft 210 kts 50°
2026-05-07 02:00 35.63316 -79.17706 7073 ft 209 kts 50°
2026-05-07 02:00 35.64195 -79.16274 7075 ft 208 kts 50°
2026-05-07 02:00 35.65054 -79.14867 7071 ft 208 kts 50°
2026-05-07 02:01 35.65928 -79.13435 7075 ft 207 kts 50°
2026-05-07 02:01 35.66788 -79.12028 7072 ft 207 kts 50°
2026-05-07 02:01 35.67659 -79.10603 7078 ft 206 kts 49°
2026-05-07 02:01 35.68512 -79.09196 7059 ft 205 kts 49°
2026-05-07 02:02 35.69368 -79.07793 7057 ft 204 kts 50°
2026-05-07 02:02 35.70210 -79.06417 7073 ft 204 kts 49°
2026-05-07 02:02 35.71059 -79.05009 7077 ft 204 kts 49°
2026-05-07 02:02 35.71910 -79.03613 7085 ft 206 kts 49°
2026-05-07 02:03 35.72776 -79.02193 7067 ft 208 kts 48°
2026-05-07 02:03 35.73640 -79.00769 7096 ft 208 kts 47°
2026-05-07 02:03 35.74514 -78.99345 7105 ft 210 kts 50°
2026-05-07 02:03 35.75381 -78.97906 7075 ft 211 kts 50°
2026-05-07 02:04 35.76264 -78.96455 7042 ft 212 kts 50°
2026-05-07 02:04 35.77147 -78.95007 7055 ft 206 kts 49°
2026-05-07 02:04 35.77988 -78.93615 7060 ft 205 kts 49°
2026-05-07 02:04 35.78969 -78.92375 7048 ft 198 kts 24°
2026-05-07 02:05 35.80167 -78.91518 7098 ft 197 kts 24°
2026-05-07 02:05 35.81364 -78.90710 7079 ft 197 kts 17°
2026-05-07 02:05 35.82585 -78.89906 7084 ft 198 kts 24°
2026-05-07 02:05 35.83808 -78.89113 7007 ft 203 kts 24°
2026-05-07 02:06 35.85043 -78.88289 7025 ft 202 kts 22°
2026-05-07 02:06 35.86279 -78.87476 7007 ft 201 kts 21°
2026-05-07 02:06 35.87525 -78.86659 6987 ft 200 kts 19°
2026-05-07 02:06 35.88735 -78.85841 7003 ft 199 kts 20°
2026-05-07 02:07 35.89956 -78.84987 7009 ft 199 kts 21°
2026-05-07 02:07 35.92384 -78.83327 7003 ft 199 kts 21°
2026-05-07 02:07 35.93573 -78.82496 7000 ft 196 kts 21°
2026-05-07 02:08 35.94769 -78.81681 7000 ft 195 kts 21°
2026-05-07 02:08 35.95959 -78.80881 7001 ft 194 kts 21°
2026-05-07 02:08 35.97139 -78.80090 7001 ft 193 kts 21°
2026-05-07 02:08 35.98267 -78.79208 6885 ft 196 kts 37°
2026-05-07 02:09 35.99229 -78.78002 6772 ft 196 kts 40°
2026-05-07 02:09 36.00158 -78.76788 6653 ft 195 kts 41°
2026-05-07 02:09 36.01100 -78.75570 6534 ft 194 kts 41°
2026-05-07 02:09 36.02024 -78.74364 6416 ft 194 kts 41°
2026-05-07 02:10 36.02959 -78.73149 6316 ft 193 kts 41°
2026-05-07 02:10 36.03881 -78.71967 6216 ft 193 kts 41°
2026-05-07 02:10 36.04814 -78.70770 6053 ft 194 kts 41°
2026-05-07 02:10 36.05759 -78.69550 5909 ft 195 kts 42°
2026-05-07 02:11 36.06701 -78.68336 5756 ft 196 kts 41°
2026-05-07 02:11 36.07642 -78.67124 5623 ft 196 kts 41°
2026-05-07 02:11 36.08577 -78.65908 5499 ft 197 kts 41°
2026-05-07 02:11 36.09535 -78.64675 5361 ft 197 kts 41°
2026-05-07 02:12 36.10484 -78.63459 5232 ft 196 kts 41°
2026-05-07 02:12 36.11423 -78.62240 5082 ft 196 kts 42°
2026-05-07 02:12 36.12362 -78.61031 4992 ft 193 kts 41°
2026-05-07 02:12 36.13299 -78.59853 4986 ft 187 kts 41°
2026-05-07 02:13 36.14195 -78.58723 4994 ft 183 kts 40°
2026-05-07 02:13 36.15083 -78.57606 4996 ft 179 kts 41°
2026-05-07 02:13 36.15942 -78.56525 4976 ft 177 kts 39°
2026-05-07 02:13 36.16806 -78.55446 5010 ft 172 kts 41°
2026-05-07 02:14 36.17637 -78.54373 5011 ft 173 kts 41°
2026-05-07 02:14 36.18479 -78.53292 5005 ft 174 kts 40°
2026-05-07 02:14 36.19318 -78.52233 5009 ft 173 kts 41°
2026-05-07 02:14 36.20160 -78.51173 4987 ft 172 kts 40°
2026-05-07 02:15 36.20983 -78.50120 5008 ft 171 kts 40°
2026-05-07 02:15 36.21813 -78.49054 5016 ft 171 kts 44°
2026-05-07 02:15 36.22644 -78.47987 5018 ft 173 kts 40°
2026-05-07 02:15 36.23475 -78.46914 5032 ft 172 kts 41°
2026-05-07 02:16 36.24112 -78.45663 5020 ft 176 kts 77°
2026-05-07 02:16 36.24035 -78.44156 5046 ft 180 kts 120°
2026-05-07 02:16 36.23394 -78.42802 5006 ft 189 kts 129°
2026-05-07 02:16 36.22658 -78.41408 4996 ft 194 kts 130°
2026-05-07 02:17 36.21884 -78.40035 4975 ft 192 kts 142°
2026-05-07 02:17 36.21003 -78.38792 5008 ft 198 kts 131°
2026-05-07 02:17 36.20233 -78.37337 5023 ft 202 kts 129°
2026-05-07 02:17 36.19497 -78.35904 5009 ft 193 kts 133°
2026-05-07 02:18 36.18810 -78.34530 5019 ft 183 kts 130°
2026-05-07 02:18 36.18075 -78.33334 4934 ft 167 kts 148°
2026-05-07 02:18 36.17420 -78.32156 4975 ft 165 kts 130°
2026-05-07 02:18 36.16835 -78.30948 4997 ft 161 kts 130°
2026-05-07 02:19 36.16232 -78.29809 4998 ft 150 kts 148°
2026-05-07 02:19 36.15382 -78.29327 5002 ft 124 kts 191°
2026-05-07 02:19 36.14628 -78.29617 5014 ft 115 kts 218°
2026-05-07 02:19 36.13904 -78.30177 5017 ft 126 kts 221°
2026-05-07 02:20 36.13174 -78.30785 5009 ft 128 kts 223°
2026-05-07 02:20 36.12706 -78.31680 5013 ft 125 kts 248°
2026-05-07 02:20 36.12397 -78.32700 5008 ft 126 kts 251°
2026-05-07 02:20 36.12103 -78.33716 5007 ft 126 kts 251°
2026-05-07 02:21 36.11813 -78.34737 4986 ft 128 kts 251°
2026-05-07 02:21 36.11504 -78.35852 4726 ft 143 kts 251°
2026-05-07 02:21 36.11187 -78.37018 4565 ft 146 kts 251°
2026-05-07 02:21 36.10864 -78.38226 4433 ft 146 kts 252°
2026-05-07 02:22 36.10546 -78.39400 4329 ft 144 kts 251°
2026-05-07 02:22 36.10230 -78.40570 4213 ft 144 kts 251°
2026-05-07 02:22 36.09918 -78.41750 4131 ft 142 kts 252°
2026-05-07 02:22 36.09618 -78.42909 4020 ft 142 kts 251°
2026-05-07 02:23 36.09317 -78.44056 4004 ft 138 kts 251°
2026-05-07 02:23 36.09031 -78.45168 4000 ft 135 kts 251°
2026-05-07 02:23 36.08748 -78.46271 3998 ft 132 kts 252°
2026-05-07 02:23 36.08473 -78.47337 3993 ft 131 kts 252°
2026-05-07 02:24 36.08186 -78.48422 4016 ft 135 kts 251°
2026-05-07 02:24 36.07890 -78.49567 4008 ft 143 kts 251°
2026-05-07 02:24 36.07566 -78.50745 4006 ft 148 kts 250°
2026-05-07 02:24 36.07241 -78.51977 3992 ft 151 kts 251°
2026-05-07 02:25 36.06853 -78.53185 4010 ft 153 kts 245°
2026-05-07 02:25 36.06333 -78.54346 3993 ft 155 kts 240°
2026-05-07 02:25 36.05732 -78.55440 3987 ft 155 kts 236°
2026-05-07 02:25 36.05069 -78.56489 4003 ft 154 kts 233°
2026-05-07 02:26 36.04369 -78.57491 3992 ft 155 kts 232°
2026-05-07 02:26 36.03641 -78.58481 3984 ft 155 kts 232°
2026-05-07 02:26 36.02908 -78.59438 4004 ft 154 kts 231°
2026-05-07 02:26 36.02163 -78.60387 3985 ft 154 kts 231°
2026-05-07 02:27 36.01408 -78.61334 3995 ft 154 kts 231°
2026-05-07 02:27 36.00641 -78.62296 3834 ft 162 kts 230°
2026-05-07 02:27 35.99822 -78.63309 3623 ft 168 kts 229°
2026-05-07 02:27 35.98983 -78.64348 3408 ft 172 kts 229°
2026-05-07 02:28 35.98138 -78.65391 3193 ft 174 kts 228°
2026-05-07 02:28 35.97274 -78.66449 2963 ft 177 kts 228°
2026-05-07 02:28 35.96390 -78.67535 2733 ft 179 kts 228°
2026-05-07 02:28 35.95525 -78.68601 2497 ft 168 kts 227°
2026-05-07 02:29 35.94765 -78.69527 2281 ft 140 kts 226°
2026-05-07 02:29 35.94135 -78.70293 2093 ft 112 kts 228°
2026-05-07 02:29 35.93664 -78.70869 2039 ft 84 kts 228°
2026-05-07 02:29 35.93274 -78.71355 1901 ft 77 kts 229°
2026-05-07 02:30 35.92879 -78.71830 1779 ft 80 kts 225°
2026-05-07 02:30 35.92480 -78.72298 1731 ft 80 kts 226°
2026-05-07 02:30 35.92054 -78.72826 1710 ft 93 kts 227°
2026-05-07 02:30 35.91587 -78.73396 1556 ft 98 kts 226°
2026-05-07 02:31 35.91105 -78.73986 1345 ft 99 kts 226°
2026-05-07 02:31 35.90622 -78.74590 1150 ft 99 kts 227°
2026-05-07 02:31 35.90135 -78.75183 1009 ft 97 kts 226°
2026-05-07 02:31 35.89663 -78.75782 857 ft 98 kts 226°
2026-05-07 02:32 35.89190 -78.76372 757 ft 95 kts 225°
2026-05-07 02:32 35.88738 -78.76928 621 ft 89 kts 224°
2026-05-07 02:32 35.88329 -78.77435 518 ft 78 kts 224°
2026-05-07 02:32 35.87964 -78.77883 422 ft 67 kts 224°
2026-05-07 02:33 35.87710 -78.78196 424 ft 34 kts 222°
2026-05-07 02:33 35.87680 -78.78345 427 ft 14 kts 315°
2026-05-07 02:33 35.87698 -78.78366 426 ft 0 kts 313°
2026-05-07 02:33 35.87700 -78.78370 426 ft 0 kts 317°
2026-05-07 02:34 35.87726 -78.78400 426 ft 13 kts 309°
2026-05-07 02:34 35.87802 -78.78388 426 ft 12 kts 31°
2026-05-07 02:34 35.87887 -78.78404 424 ft 15 kts 352°
2026-05-07 02:34 35.87964 -78.78371 424 ft 11 kts 43°
2026-05-07 02:35 35.88005 -78.78316 423 ft 0 kts 47°